sat.trackr.live / text

‹ back to catalog

LUCH 5A (SDCM/PRN 140)

NORAD 37951 · 2011-074B

PAYLOAD ACTIVE UNKNOWN

§ Identity

Operator
Country
CIS
Launch date
2011-12-11
Launch site
TYMSC
Launch vehicle
Mass (kg)
RCS (m²)
25.12

Purposes: comms, earth_obs, nav

External: N2YO · Heavens-Above · Gunter

§ Orbital elements

Epoch: 2026-05-25T02:49:35.589792Z

Period
1,436.14 min
Inclination
8.6984°
Eccentricity
0.0002375
Mean motion
1.00268429 rev/d
Perigee alt
35,777.5 km
Apogee alt
35,797.6 km
Semi-major
42,165.7 km
B*
0.0000e+0
RAAN
74.1428°
Arg perigee
352.1889°
Mean anomaly
25.8954°
Rev number
5,282

§ Raw data

LUCH 5A (SDCM/PRN 140)1 37951U 11074B   26145.11777303 -.00000050  00000+0  00000+0 0  99992 37951   8.6984  74.1428 0002375 352.1889  25.8954  1.00268429 52823

JSON: /api/v1/satellites/37951 · /tle

For live sub-satellite position, see the globe view (requires WebGL).

§ Visibility from observer

Set your observer location to see the next 7 days of passes ≥ 10°. The values pass through the URL so the page stays shareable.

No JS? Fill the form by hand. The geolocation button needs JavaScript.